GW7256 Weather Reports


Display with metric or nautical units.
time (UTC)temp
F
wind
direction
speed
MPH
gust
MPH
rain 1hr
in
rain 24hr
in
rain mn
in
humidity
%
barometer
mb
20260505204003 79 129 4.0 7.0 0.00 0.00 0.00 40 1013.6
20260505203459 80 148 3.0 6.0 0.00 0.00 0.00 37 1013.6
20260505202956 81 116 4.0 6.0 0.00 0.00 0.00 38 1013.7
20260505202453 81 99 1.0 6.0 0.00 0.00 0.00 39 1013.6
20260505201948 80 161 1.0 6.0 0.00 0.00 0.00 39 1013.5
20260505201446 80 138 4.0 6.0 0.00 0.00 0.00 40 1013.8
20260505200943 80 157 1.0 4.0 0.00 0.00 0.00 40 1013.8
20260505200441 80 139 3.0 4.0 0.00 0.00 0.00 38 1013.8
20260505195936 80 107 2.0 7.0 0.00 0.00 0.00 40 1014.0
20260505195434 80 79 4.0 7.0 0.00 0.00 0.00 38 1013.9
20260505194931 81 135 2.0 4.0 0.00 0.00 0.00 38 1013.8
20260505194428 80 112 1.0 4.0 0.00 0.00 0.00 41 1014.3
20260505193928 80 150 3.0 7.0 0.00 0.00 0.00 39 1014.2
20260505193426 79 144 1.0 4.0 0.00 0.00 0.00 38 1014.2
20260505192924 79 140 2.0 3.0 0.00 0.00 0.00 38 1014.3
20260505192422 79 166 1.0 4.0 0.00 0.00 0.00 38 1014.2
20260505191919 80 123 4.0 9.0 0.00 0.00 0.00 36 1014.3
20260505191418 80 29 5.0 8.0 0.00 0.00 0.00 34 1014.8
20260505190914 80 147 0.0 1.0 0.00 0.00 0.00 39 1014.5
20260505190409 80 106 2.0 4.0 0.00 0.00 0.00 36 1014.9
20260505185905 79 133 3.0 6.0 0.00 0.00 0.00 39 1015.0
20260505185402 79 117 4.0 6.0 0.00 0.00 0.00 38 1014.9
20260505184858 80 138 2.0 2.0 0.00 0.00 0.00 40 1015.1
20260505184355 80 125 4.0 4.0 0.00 0.00 0.00 39 1015.1
20260505183852 80 150 2.0 8.0 0.00 0.00 0.00 39 1015.2
20260505183349 79 119 0.0 2.0 0.00 0.00 0.00 40 1015.4
20260505182846 80 144 1.0 4.0 0.00 0.00 0.00 40 1015.5
20260505182343 80 68 1.0 2.0 0.00 0.00 0.00 41 1015.4
20260505181839 79 146 1.0 1.0 0.00 0.00 0.00 47 1015.4
20260505181336 79 123 1.0 6.0 0.00 0.00 0.00 42 1015.6
20260505180833 79 160 0.0 4.0 0.00 0.00 0.00 41 1015.5
20260505180330 80 156 1.0 3.0 0.00 0.00 0.00 39 1015.6
20260505175826 81 121 1.0 7.0 0.00 0.00 0.00 40 1015.3
20260505175323 80 177 1.0 1.0 0.00 0.00 0.00 43 1015.5
20260505174819 80 140 1.0 1.0 0.00 0.00 0.00 41 1015.5
20260505174317 79 129 1.0 2.0 0.00 0.00 0.00 46 1015.5
20260505173812 79 146 3.0 7.0 0.00 0.00 0.00 40 1015.6
20260505173309 79 109 2.0 6.0 0.00 0.00 0.00 39 1015.3
20260505172806 79 85 2.0 9.0 0.00 0.00 0.00 41 1015.8
20260505172306 78 168 0.0 1.0 0.00 0.00 0.00 47 1015.7
20260505171758 79 112 3.0 6.0 0.00 0.00 0.00 42 1015.7
20260505171255 78 152 1.0 3.0 0.00 0.00 0.00 41 1015.6
20260505170752 79 99 3.0 6.0 0.00 0.00 0.00 39 1015.7
20260505170249 78 137 3.0 4.0 0.00 0.00 0.00 44 1015.6
20260505165744 78 137 1.0 3.0 0.00 0.00 0.00 46 1016.1
20260505165240 78 136 4.0 8.0 0.00 0.00 0.00 43 1015.8
20260505164736 79 136 3.0 3.0 0.00 0.00 0.00 42 1015.9
20260505164233 78 142 1.0 7.0 0.00 0.00 0.00 45 1016.2
20260505163731 78 138 1.0 4.0 0.00 0.00 0.00 44 1016.1
20260505163230 78 148 0.0 4.0 0.00 0.00 0.00 44 1016.2
20260505162726 78 134 5.0 6.0 0.00 0.00 0.00 43 1016.3
20260505162223 78 90 5.0 6.0 0.00 0.00 0.00 43 1016.3
20260505161720 77 130 2.0 4.0 0.00 0.00 0.00 46 1016.3
20260505161218 77 129 4.0 4.0 0.00 0.00 0.00 46 1016.3
20260505160715 78 152 3.0 4.0 0.00 0.00 0.00 45 1016.4
20260505160213 78 145 1.0 1.0 0.00 0.00 0.00 44 1016.3
20260505153152 76 149 0.0 2.0 0.00 0.00 0.00 49 1016.8
20260505152649 76 94 1.0 6.0 0.00 0.00 0.00 49 1016.6
20260505152144 76 136 1.0 1.0 0.00 0.00 0.00 50 1016.6
20260505151640 75 158 0.0 1.0 0.00 0.00 0.00 51 1016.8
20260505151137 75 117 3.0 3.0 0.00 0.00 0.00 48 1016.7
20260505150633 75 125 4.0 6.0 0.00 0.00 0.00 47 1017.0
20260505150130 75 199 2.0 2.0 0.00 0.00 0.00 50 1016.9
20260505140559 71 68 2.0 2.0 0.00 0.00 0.00 55 1016.7
20260505125013 67 172 3.0 4.0 0.00 0.00 0.00 61 1017.0
20260505124509 66 97 0.0 3.0 0.00 0.00 0.00 61 1017.0
20260505124006 65 71 2.0 3.0 0.00 0.00 0.00 62 1017.0
20260505123502 65 69 1.0 2.0 0.00 0.00 0.00 62 1016.8
20260505122958 64 56 1.0 6.0 0.00 0.00 0.00 63 1016.8
20260505122455 64 137 0.0 0.0 0.00 0.00 0.00 65 1016.8
20260505121952 63 152 1.0 3.0 0.00 0.00 0.00 66 1016.6
20260505121449 63 143 1.0 3.0 0.00 0.00 0.00 66 1016.9
20260505120945 62 130 0.0 1.0 0.00 0.00 0.00 66 1016.8
20260505120442 61 125 0.0 0.0 0.00 0.00 0.00 69 1016.7
20260505115941 61 133 0.0 1.0 0.00 0.00 0.00 69 1016.8
20260505115437 60 100 2.0 2.0 0.00 0.00 0.00 69 1016.8
20260505114936 59 131 0.0 1.0 0.00 0.00 0.00 73 1016.7
20260505114431 58 123 1.0 2.0 0.00 0.00 0.00 74 1016.6
20260505113928 57 113 1.0 2.0 0.00 0.00 0.00 77 1016.6
20260505113425 56 121 0.0 0.0 0.00 0.00 0.00 80 1016.5
20260505112920 55 129 0.0 1.0 0.00 0.00 0.00 82 1016.5
20260505112418 54 137 0.0 0.0 0.00 0.00 0.00 85 1016.4
20260505111914 52 137 0.0 0.0 0.00 0.00 0.00 89 1016.3
20260505111409 52 136 0.0 0.0 0.00 0.00 0.00 91 1016.5
20260505110905 51 136 0.0 0.0 0.00 0.00 0.00 91 1016.3
20260505110402 51 136 0.0 0.0 0.00 0.00 0.00 89 1016.2
20260505101832 51 136 0.0 0.0 0.00 0.00 0.00 87 1015.6
20260505101328 51 136 0.0 0.0 0.00 0.00 0.00 87 1015.6
20260505100824 51 136 0.0 0.0 0.00 0.00 0.00 87 1015.7
20260505100321 51 136 0.0 0.0 0.00 0.00 0.00 89 1015.5
20260505095816 51 136 0.0 0.0 0.00 0.00 0.00 89 1015.5
20260505095314 50 136 0.0 0.0 0.00 0.00 0.00 89 1015.4
20260505094810 51 136 0.0 0.0 0.00 0.00 0.00 87 1015.0
20260505094307 51 136 0.0 0.0 0.00 0.00 0.00 86 1015.4
20260505093803 51 136 0.0 0.0 0.00 0.00 0.00 86 1015.3
20260505093301 51 136 0.0 0.0 0.00 0.00 0.00 85 1015.4
20260505092757 51 136 0.0 0.0 0.00 0.00 0.00 85 1015.2
20260505092256 52 136 0.0 0.0 0.00 0.00 0.00 84 1015.1
20260505091752 52 136 0.0 0.0 0.00 0.00 0.00 84 1015.3
20260505091250 52 136 0.0 0.0 0.00 0.00 0.00 83 1015.6
20260505090748 52 136 0.0 0.0 0.00 0.00 0.00 83 1015.3
20260505090246 52 136 0.0 0.0 0.00 0.00 0.00 83 1015.2
20260505085743 52 136 0.0 0.0 0.00 0.00 0.00 83 1015.2
20260505085241 52 136 0.0 0.0 0.00 0.00 0.00 83 1015.2
20260505084738 53 136 0.0 0.0 0.00 0.00 0.00 83 1015.1
20260505084238 53 136 0.0 0.0 0.00 0.00 0.00 84 1015.1
20260505083734 53 136 0.0 0.0 0.00 0.00 0.00 84 1015.2
20260505083230 53 136 0.0 0.0 0.00 0.00 0.00 83 1015.1
20260505082726 53 136 0.0 0.0 0.00 0.00 0.00 83 1015.0
20260505082224 53 136 0.0 0.0 0.00 0.00 0.00 80 1015.1
20260505081719 54 136 0.0 0.0 0.00 0.00 0.00 79 1014.8
20260505081217 54 136 0.0 0.0 0.00 0.00 0.00 78 1015.1
20260505080714 54 136 0.0 0.0 0.00 0.00 0.00 78 1015.1
20260505080210 54 136 0.0 0.0 0.00 0.00 0.00 77 1015.0
20260505075706 55 136 0.0 0.0 0.00 0.00 0.00 76 1015.0
20260505075203 55 136 0.0 0.0 0.00 0.00 0.00 76 1015.0
20260505074700 55 137 0.0 0.0 0.00 0.00 0.00 77 1015.0
20260505074157 55 137 0.0 0.0 0.00 0.00 0.00 76 1014.9
20260505073654 55 137 0.0 0.0 0.00 0.00 0.00 77 1015.1
20260505073152 55 137 0.0 0.0 0.00 0.00 0.00 77 1014.8
20260505072648 55 137 0.0 0.0 0.00 0.00 0.00 76 1015.0
20260505072145 55 137 0.0 0.0 0.00 0.00 0.00 76 1015.0
20260505071640 56 137 0.0 0.0 0.00 0.00 0.00 73 1014.8
20260505071138 56 137 0.0 0.0 0.00 0.00 0.00 72 1014.9
20260505070635 56 137 0.0 0.0 0.00 0.00 0.00 72 1014.7
20260505070131 57 137 0.0 0.0 0.00 0.00 0.00 71 1014.7
20260505065627 57 137 0.0 0.0 0.00 0.00 0.00 71 1014.6
20260505065124 57 137 0.0 0.0 0.00 0.00 0.00 71 1014.8
20260505064621 57 137 0.0 0.0 0.00 0.00 0.00 70 1014.7
20260505064120 57 136 1.0 1.0 0.00 0.00 0.00 70 1014.8
20260505063617 58 137 0.0 0.0 0.00 0.00 0.00 69 1014.6
20260505063112 58 136 0.0 0.0 0.00 0.00 0.00 68 1014.7
20260505062609 59 137 0.0 0.0 0.00 0.00 0.00 66 1014.8
20260505062106 59 132 0.0 0.0 0.00 0.00 0.00 66 1014.7
20260505061603 60 132 0.0 0.0 0.00 0.00 0.00 66 1014.9
20260505061102 60 135 0.0 2.0 0.00 0.00 0.00 66 1014.8
20260505060559 60 133 0.0 0.0 0.00 0.00 0.00 66 1015.1
20260505060055 60 119 0.0 1.0 0.00 0.00 0.00 66 1014.8
20260505055550 60 114 0.0 1.0 0.00 0.00 0.00 65 1014.9
20260505055048 60 123 0.0 0.0 0.00 0.00 0.00 64 1014.6
20260505054545 60 146 1.0 1.0 0.00 0.00 0.00 65 1014.8
20260505054043 60 130 0.0 1.0 0.00 0.00 0.00 64 1014.7
20260505053539 61 142 0.0 2.0 0.00 0.00 0.00 65 1014.9
20260505053036 61 134 0.0 1.0 0.00 0.00 0.00 65 1014.9
20260505052533 61 131 2.0 4.0 0.00 0.00 0.00 62 1015.1
20260505052031 61 135 1.0 1.0 0.00 0.00 0.00 64 1015.0
20260505051527 61 130 2.0 3.0 0.00 0.00 0.00 62 1015.1
20260505051026 61 138 0.0 2.0 0.00 0.00 0.00 63 1015.0
20260505050524 62 142 0.0 0.0 0.00 0.00 0.00 63 1015.2
20260505041451 62 140 0.0 4.0 0.00 0.00 0.00 62 1015.1
20260505040948 62 134 0.0 1.0 0.00 0.00 0.00 63 1015.0
20260505040446 62 141 1.0 1.0 0.00 0.00 0.00 62 1015.0
20260505035943 62 123 1.0 1.0 0.00 0.00 0.00 61 1015.2
20260505035438 63 119 0.0 2.0 0.00 0.00 0.00 60 1015.1
20260505034936 63 132 0.0 1.0 0.00 0.00 0.00 60 1014.9
20260505034432 63 138 2.0 2.0 0.00 0.00 0.00 61 1014.9
20260505033930 63 135 1.0 2.0 0.00 0.00 0.00 60 1014.8
20260505033426 64 141 2.0 7.0 0.00 0.00 0.00 59 1014.9
20260505032924 64 140 0.0 1.0 0.00 0.00 0.00 60 1014.9
20260505032421 64 129 1.0 2.0 0.00 0.00 0.00 59 1014.8
20260505031918 64 116 1.0 4.0 0.00 0.00 0.00 59 1015.0
20260505031415 64 142 1.0 2.0 0.00 0.00 0.00 58 1014.9
20260505030912 64 123 2.0 2.0 0.00 0.00 0.00 57 1014.7
20260505030407 65 113 1.0 2.0 0.00 0.00 0.00 58 1015.0
20260505025903 65 118 1.0 2.0 0.00 0.00 0.00 58 1014.8
20260505025401 65 132 2.0 3.0 0.00 0.00 0.00 59 1014.8
20260505024900 65 122 0.0 4.0 0.00 0.00 0.00 57 1014.8
20260505024357 66 137 0.0 2.0 0.00 0.00 0.00 59 1014.8
20260505023853 66 95 2.0 3.0 0.00 0.00 0.00 56 1014.8
20260505023350 66 146 2.0 3.0 0.00 0.00 0.00 57 1014.7
20260505022848 66 136 0.0 1.0 0.00 0.00 0.00 57 1014.8
20260505022344 66 79 2.0 6.0 0.00 0.00 0.00 55 1014.8
20260505021842 67 146 2.0 3.0 0.00 0.00 0.00 56 1014.5
20260505021338 67 139 3.0 3.0 0.00 0.00 0.00 56 1014.6
20260505020834 67 134 1.0 2.0 0.00 0.00 0.00 56 1014.5
20260505020330 67 144 2.0 6.0 0.00 0.00 0.00 55 1014.6
20260505015827 68 115 2.0 3.0 0.00 0.00 0.00 53 1014.2
20260505015324 67 142 1.0 6.0 0.00 0.00 0.00 54 1014.3
20260505014821 68 116 3.0 4.0 0.00 0.00 0.00 52 1014.5
20260505014318 67 131 1.0 2.0 0.00 0.00 0.00 50 1014.1
20260505013815 68 142 2.0 3.0 0.00 0.00 0.00 51 1014.4
20260505013312 68 145 0.0 1.0 0.00 0.00 0.00 49 1014.1
20260505012810 68 123 1.0 7.0 0.00 0.00 0.00 46 1014.1
20260505012308 67 117 4.0 7.0 0.00 0.00 0.00 44 1013.9
20260505011803 66 135 1.0 3.0 0.00 0.00 0.00 47 1013.8
20260505011301 66 129 1.0 2.0 0.00 0.00 0.00 51 1013.9
20260505010756 66 112 0.0 0.0 0.00 0.00 0.00 47 1013.7
20260505010252 67 112 0.0 0.0 0.00 0.00 0.00 46 1013.5
20260505005749 68 112 0.0 0.0 0.00 0.00 0.00 44 1013.5
20260505005246 68 112 0.0 1.0 0.00 0.00 0.00 44 1013.5
20260505004743 68 102 2.0 2.0 0.00 0.00 0.00 42 1013.3
20260505004239 68 115 0.0 0.0 0.00 0.00 0.00 44 1013.2
20260505003737 68 115 0.0 1.0 0.00 0.00 0.00 44 1013.1
20260505003234 67 112 0.0 2.0 0.00 0.00 0.00 44 1013.2
20260505002730 67 127 0.0 0.0 0.00 0.00 0.00 46 1013.2
20260505002228 68 128 0.0 0.0 0.00 0.00 0.00 44 1013.1
20260505001725 69 127 0.0 0.0 0.00 0.00 0.00 42 1013.1
20260505001223 69 127 0.0 0.0 0.00 0.00 0.00 44 1013.0
20260505000720 69 127 0.0 0.0 0.00 0.00 0.00 43 1013.1
20260505000218 70 128 0.0 0.0 0.00 0.00 0.00 40 1013.0
20260504235714 71 127 0.0 0.0 0.00 0.00 0.00 41 1013.0
20260504235210 71 127 0.0 1.0 0.00 0.00 0.00 40 1013.0
20260504234707 72 129 0.0 0.0 0.00 0.00 0.00 38 1012.8
20260504234204 73 128 0.0 4.0 0.00 0.00 0.00 36 1013.0
20260504233700 72 136 1.0 2.0 0.00 0.00 0.00 37 1012.9
20260504233156 73 139 0.0 0.0 0.00 0.00 0.00 37 1012.6
20260504232654 73 79 2.0 2.0 0.00 0.00 0.00 36 1012.5
20260504232151 74 138 0.0 2.0 0.00 0.00 0.00 35 1012.4
20260504231648 75 115 1.0 3.0 0.00 0.00 0.00 34 1012.6
20260504231144 74 133 0.0 2.0 0.00 0.00 0.00 37 1012.4
20260504230640 74 110 0.0 2.0 0.00 0.00 0.00 33 1012.6
20260504230139 75 154 1.0 2.0 0.00 0.00 0.00 37 1012.8
20260504225637 75 144 0.0 1.0 0.00 0.00 0.00 33 1012.5
20260504225133 75 123 0.0 1.0 0.00 0.00 0.00 33 1012.5
20260504224630 76 125 2.0 3.0 0.00 0.00 0.00 30 1012.6
20260504224126 77 115 3.0 6.0 0.00 0.00 0.00 32 1012.5
20260504223624 78 138 1.0 6.0 0.00 0.00 0.00 31 1012.8
20260504223119 78 92 2.0 2.0 0.00 0.00 0.00 30 1012.7
20260504222616 78 131 2.0 6.0 0.00 0.00 0.00 30 1012.8
20260504222114 78 145 0.0 1.0 0.00 0.00 0.00 31 1012.6
20260504221611 79 128 0.0 1.0 0.00 0.00 0.00 30 1012.7
20260504221108 80 150 0.0 1.0 0.00 0.00 0.00 30 1012.6
20260504220604 80 149 0.0 1.0 0.00 0.00 0.00 31 1012.6
20260504215558 80 150 0.0 1.0 0.00 0.00 0.00 27 1012.5
20260504215055 80 149 0.0 2.0 0.00 0.00 0.00 28 1012.5
20260504214551 80 145 1.0 3.0 0.00 0.00 0.00 28 1012.6
20260504214047 80 155 1.0 7.0 0.00 0.00 0.00 28 1012.6
20260504213544 81 157 0.0 4.0 0.00 0.00 0.00 30 1012.6
20260504213041 81 178 1.0 2.0 0.00 0.00 0.00 27 1012.5
20260504212537 81 111 1.0 1.0 0.00 0.00 0.00 27 1012.7
20260504212034 80 64 2.0 2.0 0.00 0.00 0.00 25 1012.5
20260504211531 80 116 1.0 7.0 0.00 0.00 0.00 25 1012.7
20260504211028 81 130 1.0 1.0 0.00 0.00 0.00 30 1012.8
20260504210525 80 143 1.0 1.0 0.00 0.00 0.00 28 1012.6
20260504210022 80 118 1.0 2.0 0.00 0.00 0.00 28 1012.4
20260504205520 80 144 2.0 2.0 0.00 0.00 0.00 33 1012.6
20260504205018 80 144 1.0 9.0 0.00 0.00 0.00 29 1012.8
20260504204515 80 144 1.0 9.0 0.00 0.00 0.00 26 1012.8